This is the latest recevied weather packets stored in our database for station/object KJ4YLO. If no packets are shown the sender has not sent any weather packets the latest 1 day(s).
| Time | Temp. | Humidity | Pressure | Rain* | Wind** | Luminosity | Snow |
|---|---|---|---|---|---|---|---|
| 1778070231 | 16.67° C | 75% | 1015.9 hPa | 0 mm | - | 53 W/m² | - |
| 1778069323 | 16.67° C | 75% | 1015.5 hPa | 0 mm | - | 71 W/m² | - |
| 1778068114 | 16.11° C | 75% | 1015.1 hPa | 0 mm | - | 42 W/m² | - |
| 1778067510 | 15.56° C | 75% | 1015.5 hPa | 0 mm | - | 42 W/m² | - |
| 1778067207 | 15.56° C | 76% | 1015.1 hPa | 0 mm | - | 22 W/m² | - |
| 1778066298 | 15.56° C | 75% | 1015.5 hPa | 0 mm | - | 7 W/m² | - |
| 1778065996 | 15.56° C | 75% | 1015.5 hPa | 0 mm | - | 6 W/m² | - |
| 1778065390 | 15° C | 74% | 1015.5 hPa | 0 mm | - | 2 W/m² | - |
| 1778064481 | 15° C | 74% | 1015.1 hPa | 0 mm | - | 0 W/m² | - |
| 1778064179 | 15° C | 74% | 1015.1 hPa | 0 mm | - | 0 W/m² | - |
| 1778063876 | 15° C | 75% | 1014.8 hPa | 0 mm | - | 0 W/m² | - |
| 1778063271 | 15° C | 75% | 1014.5 hPa | 0 mm | - | 0 W/m² | - |
| 1778062060 | 15° C | 75% | 1014.5 hPa | 0 mm | - | 0 W/m² | - |
| 1778061758 | 15° C | 75% | 1014.5 hPa | 0 mm | - | 0 W/m² | - |
| 1778061456 | 15° C | 75% | 1014.5 hPa | 0 mm | - | 0 W/m² | - |
| 1778060246 | 15° C | 73% | 1014.5 hPa | 0 mm | - | 0 W/m² | - |
| 1778059338 | 15.56° C | 71% | 1014.5 hPa | 0 mm | - | 0 W/m² | - |
| 1778058127 | 16.67° C | 70% | 1014.5 hPa | 0 mm | - | 0 W/m² | - |
| 1778057824 | 16.67° C | 70% | 1014.5 hPa | 0 mm | - | 0 W/m² | - |
| 1778057520 | 16.67° C | 71% | 1014.8 hPa | 0 mm | - | 0 W/m² | - |
| 1778056913 | 16.67° C | 71% | 1014.5 hPa | 0 mm | - | 0 W/m² | - |
| 1778056610 | 16.67° C | 70% | 1014.5 hPa | 0 mm | - | 0 W/m² | - |
| 1778056308 | 16.67° C | 69% | 1014.5 hPa | 0 mm | - | 0 W/m² | - |
| 1778055398 | 16.67° C | 71% | 1014.5 hPa | 0 mm | - | 0 W/m² | - |
| 1778055095 | 16.67° C | 71% | 1014.8 hPa | 0 mm | - | 0 W/m² | - |
* Rain latest hour (hover to see other rain measurements)
** Current wind speed in m/s (hover to see current wind gust speed)